Alva, OK

11:22 PM CST on November 18, 2017 (GMT -0600)
Alva Regional

Weather History for KAVK - November, 2013

Change the Weather History Date:

Wednesday, November 6, 2013

  Actual Average Record
Temperature  
Mean Temperature 44 °F -  
Max Temperature 55 °F 60 °F 88 °F (1980)
Min Temperature 33 °F 35 °F 15 °F (1959)
Degree Days  
Heating Degree Days 21    
Moisture  
Dew Point 33 °F    
Average Humidity 71    
Maximum Humidity 93    
Minimum Humidity 36    
Precipitation  
Precipitation 0.00 in - - ()
Sea Level Pressure  
Sea Level Pressure 30.28 in    
Wind  
Wind Speed 11 mph (NW)    
Max Wind Speed 18 mph    
Max Gust Speed 23 mph    
Visibility 10 miles    
Events      
Averages and records for this station are not official NWS values.
T = Trace of Precipitation, MM = Missing Value Source: NWS Daily Summary

Daily Weather History Graph

Daily Weather History Graph

Search for Another Location

Airport or City:

Trip Planner

Search our weather history database for the weather conditions in past years. The results will help you decide how hot, cold, wet, or windy it might be!

Date:

Astronomy

Nov. 06, 2013 Rise Set
Actual Time 7:03 AM CST 5:32 PM CST
Civil Twilight 6:36 AM CST 5:59 PM CST
Nautical Twilight 6:05 AM CST 6:30 PM CST
Astronomical Twilight 5:35 AM CST 7:00 PM CST
Moon 10:17 AM CST (11/6) 8:40 PM CST (11/6)
Length of Visible Light 11h 22m
Length of Day
10h 28m
Waxing Crescent, 14% of the Moon is Illuminated
Nov 6
Waxing Crescent
Nov 9
First Quarter
Nov 17
Full
Nov 25
Last Quarter
Dec 2
New

Hourly Weather History & Observations

Time (CST) Temp. Windchill Dew Point Humidity Pressure Visibility Wind Dir Wind Speed Gust Speed Precip Events Conditions
12:10 AM 39.2 °F 32.0 °F 35.6 °F 87% 30.13 in 10.0 mi North 11.5 mph - N/A   Mostly Cloudy
12:30 AM 39.2 °F 31.6 °F 35.6 °F 87% 30.14 in 10.0 mi NNW 12.7 mph 18.4 mph N/A   Overcast
12:50 AM 39.2 °F 30.8 °F 35.6 °F 87% 30.13 in 10.0 mi NNW 15.0 mph - N/A   Mostly Cloudy
1:10 AM 39.2 °F 32.0 °F 35.6 °F 87% 30.14 in 10.0 mi NNW 11.5 mph 20.7 mph N/A   Mostly Cloudy
1:30 AM 39.2 °F 32.0 °F 35.6 °F 87% 30.15 in 10.0 mi NNW 11.5 mph - N/A   Mostly Cloudy
1:50 AM 39.2 °F 30.2 °F 33.8 °F 81% 30.15 in 10.0 mi North 17.3 mph 23.0 mph N/A   Mostly Cloudy
2:10 AM 39.2 °F 29.8 °F 33.8 °F 81% 30.15 in 10.0 mi North 18.4 mph 21.9 mph N/A   Mostly Cloudy
2:30 AM 39.2 °F 30.8 °F 33.8 °F 81% 30.16 in 10.0 mi NNW 15.0 mph 20.7 mph N/A   Overcast
2:50 AM 39.2 °F 32.0 °F 33.8 °F 81% 30.17 in 10.0 mi North 11.5 mph 16.1 mph N/A   Overcast
3:10 AM 39.2 °F 32.0 °F 33.8 °F 81% 30.17 in 10.0 mi North 11.5 mph - N/A   Overcast
3:30 AM 37.4 °F 28.9 °F 32.0 °F 81% 30.18 in 10.0 mi NNW 13.8 mph 17.3 mph N/A   Scattered Clouds
3:50 AM 37.4 °F 30.8 °F 32.0 °F 81% 30.19 in 10.0 mi NNW 9.2 mph 18.4 mph N/A   Mostly Cloudy
4:10 AM 37.4 °F 29.8 °F 32.0 °F 81% 30.19 in 10.0 mi NNW 11.5 mph 19.6 mph N/A   Mostly Cloudy
4:30 AM 37.4 °F 30.3 °F 32.0 °F 81% 30.21 in 10.0 mi NNW 10.4 mph - N/A   Partly Cloudy
4:50 AM 35.6 °F 28.0 °F 32.0 °F 87% 30.21 in 10.0 mi NNW 10.4 mph - N/A   Clear
5:10 AM 35.6 °F 28.0 °F 32.0 °F 87% 30.22 in 10.0 mi NW 10.4 mph - N/A   Clear
5:30 AM 35.6 °F 28.6 °F 32.0 °F 87% 30.23 in 10.0 mi NW 9.2 mph - N/A   Clear
5:50 AM 35.6 °F 26.6 °F 32.0 °F 87% 30.23 in 10.0 mi NNW 13.8 mph - N/A   Clear
6:10 AM 35.6 °F 27.1 °F 32.0 °F 87% 30.23 in 10.0 mi NNW 12.7 mph - N/A   Clear
6:30 AM 35.6 °F 28.0 °F 32.0 °F 87% 30.24 in 10.0 mi NNW 10.4 mph - N/A   Clear
6:50 AM 35.6 °F 28.6 °F 32.0 °F 87% 30.25 in 10.0 mi NNW 9.2 mph - N/A   Clear
7:10 AM 33.8 °F 26.4 °F 32.0 °F 93% 30.26 in 10.0 mi NNW 9.2 mph - N/A   Clear
7:30 AM 33.8 °F 26.4 °F 32.0 °F 93% 30.27 in 10.0 mi NW 9.2 mph - N/A   Clear
7:50 AM 33.8 °F 25.3 °F 32.0 °F 93% 30.29 in 10.0 mi NNW 11.5 mph - N/A   Clear
8:10 AM 35.6 °F 27.5 °F 32.0 °F 87% 30.30 in 10.0 mi NNW 11.5 mph - N/A   Clear
8:30 AM 37.4 °F 28.5 °F 32.0 °F 81% 30.31 in 10.0 mi NNW 15.0 mph 19.6 mph N/A   Clear
8:50 AM 39.2 °F 32.0 °F 32.0 °F 75% 30.31 in 10.0 mi NNW 11.5 mph 18.4 mph N/A   Clear
9:10 AM 39.2 °F 31.6 °F 32.0 °F 75% 30.32 in 10.0 mi NNW 12.7 mph 18.4 mph N/A   Clear
9:30 AM 41.0 °F 33.5 °F 32.0 °F 70% 30.32 in 10.0 mi NNW 13.8 mph - N/A   Clear
9:50 AM 41.0 °F 34.3 °F 32.0 °F 70% 30.33 in 10.0 mi NNW 11.5 mph - N/A   Clear
10:10 AM 42.8 °F 36.6 °F 33.8 °F 70% 30.33 in 10.0 mi NNW 11.5 mph 17.3 mph N/A   Clear
10:30 AM 44.6 °F 38.8 °F 33.8 °F 66% 30.33 in 10.0 mi NNW 11.5 mph - N/A   Clear
10:50 AM 44.6 °F 38.8 °F 33.8 °F 66% 30.33 in 10.0 mi North 11.5 mph - N/A   Clear
11:10 AM 44.6 °F 39.7 °F 33.8 °F 66% 30.32 in 10.0 mi NNW 9.2 mph - N/A   Clear
11:30 AM 46.4 °F 42.9 °F 33.8 °F 62% 30.32 in 10.0 mi NW 6.9 mph - N/A   Clear
11:50 AM 46.4 °F 42.4 °F 33.8 °F 62% 30.32 in 10.0 mi NNW 8.1 mph - N/A   Clear
12:10 PM 48.2 °F - 33.8 °F 58% 30.32 in 10.0 mi NW 9.2 mph - N/A   Clear
12:30 PM 48.2 °F - 33.8 °F 58% 30.31 in 10.0 mi NW 9.2 mph - N/A   Clear
12:50 PM 50.0 °F - 32.0 °F 50% 30.31 in 10.0 mi NW 10.4 mph - N/A   Clear
1:10 PM 50.0 °F - 33.8 °F 54% 30.30 in 10.0 mi NNW 11.5 mph - N/A   Clear
1:30 PM 50.0 °F - 32.0 °F 50% 30.29 in 10.0 mi NW 12.7 mph - N/A   Clear
1:50 PM 51.8 °F - 32.0 °F 47% 30.29 in 10.0 mi NW 9.2 mph - N/A   Clear
2:10 PM 51.8 °F - 32.0 °F 47% 30.29 in 10.0 mi NW 4.6 mph - N/A   Clear
2:30 PM 53.6 °F - 30.2 °F 41% 30.29 in 10.0 mi North 5.8 mph - N/A   Clear
2:50 PM 53.6 °F - 30.2 °F 41% 30.29 in 10.0 mi WNW 5.8 mph - N/A   Clear
3:10 PM 53.6 °F - 28.4 °F 38% 30.28 in 10.0 mi NW 4.6 mph - N/A   Clear
3:30 PM 55.4 °F - 28.4 °F 36% 30.28 in 10.0 mi NW 4.6 mph - N/A   Clear
3:50 PM 55.4 °F - 28.4 °F 36% 30.29 in 10.0 mi NNW 5.8 mph - N/A   Clear
4:10 PM 55.4 °F - 28.4 °F 36% 30.28 in 10.0 mi WNW 3.5 mph - N/A   Clear
4:30 PM 55.4 °F - 28.4 °F 36% 30.28 in 10.0 mi NW 5.8 mph - N/A   Clear
4:50 PM 55.4 °F - 28.4 °F 36% 30.28 in 10.0 mi Calm Calm - N/A   Clear
5:10 PM 53.6 °F - 32.0 °F 44% 30.28 in 10.0 mi Calm Calm - N/A   Clear
5:30 PM 51.8 °F - 32.0 °F 47% 30.29 in 10.0 mi Calm Calm - N/A   Clear
5:50 PM 50.0 °F - 32.0 °F 50% 30.30 in 10.0 mi WSW 3.5 mph - N/A   Clear
6:10 PM 48.2 °F - 35.6 °F 62% 30.31 in 10.0 mi South 5.8 mph - N/A   Clear
6:30 PM 46.4 °F 44.3 °F 33.8 °F 62% 30.31 in 10.0 mi SE 4.6 mph - N/A   Clear
6:50 PM 44.6 °F 41.4 °F 33.8 °F 66% 30.31 in 10.0 mi SSE 5.8 mph - N/A   Clear
7:10 PM 41.0 °F 36.4 °F 35.6 °F 81% 30.32 in 10.0 mi SSE 6.9 mph - N/A   Clear
7:30 PM 41.0 °F 35.2 °F 35.6 °F 81% 30.32 in 10.0 mi South 9.2 mph - N/A   Clear
7:50 PM 41.0 °F 35.2 °F 33.8 °F 76% 30.32 in 10.0 mi South 9.2 mph - N/A   Clear
8:10 PM 41.0 °F 34.7 °F 33.8 °F 76% 30.32 in 10.0 mi South 10.4 mph - N/A   Clear
8:30 PM 39.2 °F 33.0 °F 33.8 °F 81% 30.33 in 10.0 mi South 9.2 mph - N/A   Clear
8:50 PM 39.2 °F 33.0 °F 33.8 °F 81% 30.33 in 10.0 mi SSW 9.2 mph - N/A   Clear
9:10 PM 39.2 °F 33.0 °F 32.0 °F 75% 30.34 in 10.0 mi SSW 9.2 mph - N/A   Partly Cloudy
9:30 PM 39.2 °F 34.2 °F 32.0 °F 75% 30.34 in 10.0 mi SSW 6.9 mph - N/A   Clear
9:50 PM 37.4 °F 32.1 °F 32.0 °F 81% 30.35 in 10.0 mi SSW 6.9 mph - N/A   Clear
10:10 PM 37.4 °F 32.1 °F 32.0 °F 81% 30.35 in 10.0 mi SSW 6.9 mph - N/A   Clear
10:30 PM 37.4 °F 30.8 °F 32.0 °F 81% 30.35 in 10.0 mi SSW 9.2 mph - N/A   Clear
10:50 PM 37.4 °F 32.1 °F 32.0 °F 81% 30.35 in 10.0 mi SW 6.9 mph - N/A   Clear
11:10 PM 35.6 °F 30.7 °F 32.0 °F 87% 30.36 in 10.0 mi WSW 5.8 mph - N/A   Clear
11:30 PM 35.6 °F 28.6 °F 32.0 °F 87% 30.36 in 9.0 mi WSW 9.2 mph - N/A   Clear
11:50 PM 37.4 °F 30.8 °F 32.0 °F 81% 30.36 in 10.0 mi WSW 9.2 mph - N/A   Clear